Theta_e
318 318 317 316 318 320 320 319 320 320 320 321 320 318 317 316 317 323 325 324 324 323 323 325 324 325 326 325 326 326 328 332 331 334 334 335 337 342 345 345 346 348 348 351 353 352 351 352 352 352 351 352 352 353 353 352 352 352 352 352 351 349 348 348 347 346 345 345 346 345 345 345 346 345 346 346 346 346 345 345 346 346 346 346 346 346
318 316 317 319 320 320 319 319 320 321 321 322 320 318 317 317 319 324 325 322 323 321 321 324 323 324 325 325 327 326 328 331 332 334 335 336 337 340 345 346 347 350 349 352 354 354 353 353 354 353 352 352 353 354 353 353 352 353 353 353 352 349 349 349 348 347 346 345 346 345 346 345 345 345 346 347 347 346 346 346 346 346 346 346 346 346
316 316 319 321 320 319 319 320 320 321 322 321 320 318 315 318 320 322 323 322 322 321 321 324 322 323 326 326 326 326 328 330 331 332 333 335 337 337 341 344 346 348 348 350 351 352 353 353 354 354 353 353 353 354 354 353 353 353 353 354 353 351 350 350 349 348 347 346 346 346 346 345 345 346 346 347 347 347 347 347 346 346 345 346 346 346
313 317 321 321 319 319 320 320 321 321 321 322 320 316 314 319 320 316 319 323 322 321 321 323 321 322 326 326 327 328 329 330 331 331 332 333 335 336 336 339 341 342 346 349 350 351 352 353 355 355 354 353 354 354 354 354 354 354 354 355 353 352 352 351 350 349 347 346 346 345 345 345 345 346 347 347 347 347 347 347 346 345 345 344 345 346
316 319 321 320 319 320 321 321 322 320 319 321 322 318 316 320 320 318 321 323 322 321 323 321 316 317 324 325 327 330 330 331 332 333 334 334 334 334 334 336 337 338 341 344 346 349 352 354 355 355 355 355 354 354 354 355 355 355 355 355 354 354 354 352 350 349 347 346 345 345 345 345 344 346 347 347 347 346 347 347 346 345 344 344 344 344
319 320 320 320 320 321 321 322 323 321 317 317 322 323 321 322 322 322 323 321 316 315 320 319 311 312 321 324 327 331 331 331 332 333 335 336 336 335 335 335 335 335 337 340 342 343 349 353 354 355 355 355 355 355 354 355 355 356 356 355 355 355 355 354 351 349 348 347 346 345 345 344 345 346 346 346 346 346 347 347 344 343 343 344 344 344
320 320 319 320 320 321 322 321 322 323 317 314 320 324 323 324 323 322 322 317 311 312 320 320 312 310 317 322 328 331 329 329 330 331 333 335 337 337 337 337 336 336 336 338 339 339 343 348 351 354 355 355 355 355 354 354 354 355 355 355 355 355 355 354 352 349 348 347 347 345 345 346 346 346 346 345 346 346 347 346 343 343 343 344 345 345
321 320 319 320 321 321 321 321 322 323 317 314 320 323 323 323 322 322 321 315 314 315 318 320 317 311 311 319 330 329 327 329 328 328 330 331 335 336 337 338 339 340 339 338 339 340 342 345 348 351 353 354 354 354 353 352 352 352 353 354 355 354 355 354 351 349 349 347 345 344 343 344 344 344 344 344 344 344 344 343 342 343 343 343 344 345
322 321 320 321 321 321 321 322 323 323 320 319 321 322 322 323 322 323 320 315 316 315 311 314 316 311 310 319 328 328 326 326 326 325 326 327 330 333 335 337 339 340 340 340 340 342 344 346 347 348 351 352 352 353 353 351 351 351 352 353 353 352 352 352 348 346 349 347 342 341 341 341 341 341 342 343 343 342 341 341 341 341 341 341 342 343
323 321 321 322 322 322 322 323 323 322 322 321 321 321 322 323 322 323 320 315 314 313 310 311 314 311 310 316 322 325 324 324 325 323 322 325 327 328 331 333 335 338 339 340 340 343 346 347 347 348 349 350 351 352 351 350 349 351 352 351 352 351 351 352 348 345 350 348 341 341 342 341 339 340 341 341 341 341 340 340 340 339 338 339 340 341
322 320 321 322 322 323 322 321 321 321 322 320 321 321 321 321 322 322 320 315 312 312 311 311 314 312 311 315 319 321 322 322 323 322 321 323 324 326 327 328 330 333 335 337 339 343 347 348 348 348 348 348 349 349 348 348 349 350 351 351 351 351 351 352 350 348 350 347 343 343 344 341 339 339 339 339 339 339 339 339 339 337 337 337 339 339
323 321 321 321 321 321 321 320 320 320 320 320 322 320 317 317 318 316 315 315 313 311 311 313 315 312 310 315 319 320 321 321 321 321 321 322 324 325 325 325 327 328 330 333 336 340 346 349 348 348 348 347 347 348 347 348 349 350 350 350 351 351 351 351 351 351 350 347 345 343 343 341 340 339 339 338 339 339 339 338 337 336 335 336 337 337
322 322 322 321 320 320 321 320 319 319 319 321 320 317 313 313 314 313 313 313 312 311 312 315 315 312 313 317 319 319 318 319 320 321 321 323 325 325 323 324 325 325 327 329 332 337 342 346 348 347 347 348 347 348 348 348 349 349 349 350 350 350 351 351 350 350 349 348 346 343 342 341 340 340 339 339 339 339 339 338 338 337 335 335 335 335
317 321 322 321 320 320 321 319 316 317 320 320 317 313 312 313 314 315 313 312 312 311 313 315 314 312 315 319 319 319 317 318 320 322 323 324 324 324 322 322 323 324 325 326 329 333 337 344 347 347 347 347 348 348 348 348 348 349 349 349 349 350 350 349 348 347 348 348 345 344 344 342 340 338 337 338 338 339 339 339 339 338 336 335 334 333
313 316 319 320 320 320 321 320 318 320 320 321 321 318 314 312 313 314 313 312 312 312 313 314 313 313 315 318 319 318 317 319 321 322 323 323 323 323 322 322 323 323 324 325 328 331 334 339 343 345 347 347 348 348 348 348 348 349 349 349 349 349 349 348 347 345 344 343 342 341 341 340 338 336 335 336 337 338 339 339 339 339 337 336 335 333
313 314 320 321 320 321 322 321 321 322 320 321 323 318 314 315 315 314 315 317 315 313 313 312 313 316 319 319 319 318 318 319 321 322 323 322 323 323 323 323 324 324 324 325 327 330 332 335 337 342 345 346 347 346 347 347 347 348 348 348 348 348 348 347 348 346 340 336 336 336 336 335 336 335 334 335 337 338 338 339 339 339 338 337 336 334
313 315 321 321 320 322 321 321 322 320 318 320 318 315 316 321 320 314 315 318 316 314 313 313 315 318 319 319 319 319 319 320 320 321 322 323 324 324 324 324 324 324 324 325 326 327 330 332 334 337 340 342 344 345 345 346 346 346 347 346 346 346 346 346 347 346 340 336 334 334 334 334 334 334 333 334 336 338 338 338 339 339 338 337 336 335
317 316 321 322 321 321 320 321 322 320 320 320 315 316 320 321 321 317 314 314 314 313 314 314 315 316 315 317 320 321 321 320 320 320 321 322 323 323 324 324 324 324 324 324 325 326 329 330 331 333 334 337 339 342 342 343 344 344 344 344 344 344 344 344 344 341 338 336 334 332 332 332 332 333 333 334 335 336 337 337 338 338 337 336 334 332
321 315 318 322 322 321 321 320 320 320 322 320 318 320 320 316 315 316 314 314 314 314 314 314 313 313 313 317 321 322 322 321 320 320 320 322 322 322 323 323 323 324 324 323 323 324 326 327 328 329 330 331 334 336 338 339 340 341 341 341 341 341 341 342 341 338 335 335 334 332 332 330 331 332 333 334 335 335 335 336 336 336 335 333 331 330
323 318 316 321 322 321 321 320 317 318 320 321 321 321 321 317 315 315 315 315 314 314 315 314 313 313 316 321 323 322 323 322 321 320 320 321 322 322 322 322 323 323 323 323 322 322 324 325 325 326 327 328 329 331 333 335 336 337 337 337 337 337 337 338 338 336 334 333 333 333 333 331 330 330 330 332 333 333 334 335 335 335 333 331 329 328
325 321 315 319 322 319 319 320 319 320 321 319 318 318 318 319 318 318 317 315 313 314 314 314 314 314 319 323 323 321 321 321 320 321 320 321 321 321 322 323 322 322 322 322 321 321 323 324 323 323 324 325 326 328 329 330 331 332 332 333 334 334 334 334 335 334 333 332 331 332 332 331 330 329 329 329 330 331 333 333 334 334 332 329 328 327
324 322 316 316 319 316 317 320 320 321 322 321 320 318 318 319 317 315 315 314 314 313 313 314 315 315 319 321 320 319 319 318 319 320 320 320 321 321 322 323 322 322 321 321 321 321 322 322 321 321 322 322 323 325 325 326 327 328 328 329 330 330 330 331 332 332 331 331 331 331 330 330 330 329 328 328 329 329 330 330 331 331 330 328 327 326
325 325 318 315 317 317 318 319 318 319 320 320 321 321 321 321 317 314 314 315 315 314 314 314 314 317 320 319 319 318 317 318 318 319 320 320 320 320 320 321 321 321 320 319 320 320 321 320 319 320 320 320 321 321 322 322 323 324 324 324 326 327 328 328 329 329 329 329 330 330 329 329 329 329 328 328 329 328 327 327 328 328 328 327 327 327
326 326 318 315 317 318 318 318 318 318 319 319 319 319 320 320 318 317 318 319 317 315 315 315 315 319 320 319 318 318 318 318 318 319 320 319 319 319 319 319 319 319 318 318 319 320 319 318 318 318 318 317 318 318 319 319 320 321 321 322 323 324 325 325 326 326 326 327 327 328 328 328 328 328 328 327 328 327 326 326 325 325 325 325 326 326
322 322 317 315 316 318 318 319 318 317 318 319 318 317 317 318 318 319 320 320 318 315 315 316 315 319 321 319 318 318 319 320 319 319 320 320 319 318 318 318 318 317 317 317 317 318 318 317 317 317 316 316 316 316 317 318 318 319 319 320 321 322 322 323 324 324 325 325 325 326 327 327 327 327 326 326 326 326 326 325 325 325 324 324 324 324
320 322 319 315 315 318 318 318 317 317 319 319 317 315 315 315 317 317 317 317 317 317 318 316 316 319 322 320 319 320 320 321 321 319 318 319 318 318 318 318 317 317 316 316 316 316 316 316 316 316 316 315 315 315 315 315 316 317 318 319 319 320 320 321 321 322 322 323 323 323 323 324 325 325 325 325 325 325 325 325 324 324 323 323 323 322
321 322 321 318 316 315 314 314 316 318 319 318 316 315 314 313 315 315 314 314 315 316 317 316 317 320 322 321 320 320 320 321 321 320 318 318 318 318 317 316 316 316 315 314 314 314 314 314 315 315 315 314 313 313 313 313 314 315 316 317 317 318 319 319 319 319 319 320 320 320 320 321 322 323 323 323 323 323 323 323 323 323 322 322 322 321
319 316 318 320 316 313 312 313 314 315 316 316 315 315 314 313 313 314 313 314 315 313 312 315 317 316 318 321 322 320 319 320 321 320 319 318 317 316 316 315 314 314 313 313 313 313 313 313 314 315 315 314 313 313 312 312 312 313 315 315 316 316 317 318 318 318 318 318 318 318 318 319 319 320 320 321 321 321 321 320 320 320 320 320 320 319
317 312 315 317 313 312 311 312 312 311 312 313 312 313 314 313 313 313 313 313 314 312 311 314 315 314 316 320 320 319 318 319 320 320 318 317 316 315 315 314 313 312 312 311 311 312 312 312 314 314 314 314 313 313 312 312 312 312 313 314 315 315 316 316 316 316 316 317 318 317 317 317 318 318 318 318 318 318 318 317 317 317 316 317 317 316
317 313 315 314 312 312 310 310 310 310 309 310 309 309 310 311 311 312 311 311 311 311 310 311 313 312 314 317 318 318 317 318 319 318 316 316 315 314 314 313 311 310 310 309 310 310 310 311 312 312 311 311 311 312 312 312 312 312 312 313 314 314 315 315 315 315 315 315 316 316 316 316 317 317 316 317 317 316 316 316 316 315 315 315 315 314
315 315 316 313 311 311 311 310 309 308 308 308 308 307 308 308 309 310 310 311 312 311 311 312 311 311 313 315 317 318 318 318 318 317 316 316 314 313 312 311 310 309 309 308 309 309 309 310 311 310 310 310 309 310 310 311 311 311 311 312 313 313 314 314 314 314 314 314 315 315 315 315 316 316 315 315 315 315 315 315 315 315 315 314 314 313
314 315 316 313 310 311 311 309 308 308 309 308 308 308 307 308 309 309 310 311 312 313 313 313 311 313 316 318 318 318 318 318 318 318 317 315 313 312 311 310 309 309 308 308 308 308 308 308 309 309 309 309 309 309 309 309 310 310 310 311 312 312 313 313 313 314 314 314 314 314 314 314 315 315 315 315 315 314 315 315 315 314 314 314 314 313
315 314 314 313 311 311 310 309 309 310 310 309 311 311 309 308 309 309 310 312 313 313 312 312 314 318 320 318 318 319 318 318 318 318 316 314 312 311 309 309 308 308 308 308 308 308 307 308 308 308 309 309 309 309 309 309 309 310 311 311 312 312 312 312 313 313 313 313 313 313 313 313 314 314 314 314 314 314 314 314 313 313 312 312 311 311
316 315 314 313 311 311 311 311 310 311 310 311 314 314 312 311 310 309 311 313 313 313 313 314 317 319 319 317 318 319 318 318 318 317 315 314 312 310 309 308 308 308 308 308 307 308 308 308 308 308 308 309 309 309 309 309 309 309 310 311 312 312 312 312 312 312 312 312 312 312 312 312 313 314 314 314 313 313 312 312 311 311 310 309 309 309
316 315 314 313 311 311 312 311 309 310 311 314 316 315 312 312 312 312 312 313 313 314 314 315 317 318 317 316 318 318 317 316 315 315 315 313 312 310 308 308 307 307 307 307 308 309 309 309 308 308 309 309 309 309 309 309 309 309 309 310 311 311 312 312 312 312 312 312 311 311 311 312 312 312 313 312 312 311 310 310 310 309 308 308 308 308
315 314 313 312 311 311 311 310 309 310 313 314 314 314 313 313 314 313 312 313 314 314 314 314 316 317 316 315 315 315 314 314 312 312 313 313 311 309 308 308 308 308 308 308 308 308 309 308 308 309 309 309 309 309 309 309 309 310 310 311 311 311 311 311 311 312 311 311 311 311 311 311 311 311 311 310 310 310 309 308 308 307 307 307 306 307
314 314 313 312 311 311 310 309 309 311 311 312 312 313 314 315 316 314 312 313 315 315 315 316 316 316 315 314 314 313 313 312 312 312 312 311 308 307 308 308 307 307 308 307 307 307 307 306 307 308 308 308 309 309 309 309 310 310 310 311 311 311 311 311 311 311 311 310 310 310 310 310 310 309 309 309 309 308 308 307 307 306 306 306 306 306
312 313 313 311 311 310 308 308 309 310 310 312 314 315 316 316 317 316 312 313 317 317 315 317 317 315 314 314 314 314 313 313 313 313 311 309 307 307 308 308 307 307 307 306 305 305 305 306 306 307 307 308 309 309 309 309 309 309 309 310 311 310 310 310 310 310 310 310 309 309 309 308 308 308 308 308 308 307 307 307 306 306 306 306 305 305
312 312 312 311 310 309 308 308 308 308 310 315 316 315 314 313 316 315 310 311 317 318 315 316 316 315 315 315 314 314 313 312 312 312 310 308 308 308 307 307 307 306 305 305 305 305 305 306 306 307 307 308 309 309 309 309 309 309 309 309 310 310 310 310 309 309 309 309 308 308 308 308 308 308 308 308 307 307 307 306 306 306 305 305 305 305
311 311 311 310 309 309 309 308 307 308 313 316 315 313 312 313 315 314 310 311 317 317 315 316 316 315 315 315 314 313 312 311 311 311 309 308 308 307 307 307 307 306 305 305 305 305 306 306 306 306 307 307 308 308 308 308 308 309 309 309 309 309 309 309 309 309 309 308 308 308 307 307 307 308 308 308 307 307 306 306 305 305 304 304 304 304
311 310 310 309 309 309 309 308 307 309 314 316 314 312 312 314 314 311 310 313 317 315 314 315 314 313 313 313 312 311 311 310 310 308 307 307 307 306 306 305 305 305 304 304 305 305 306 306 306 306 306 307 307 307 308 308 308 308 309 309 309 309 309 309 309 309 309 308 308 308 307 307 307 308 308 307 306 306 305 305 305 304 304 304 304 304
311 310 309 309 309 308 309 309 307 309 313 314 313 312 313 312 311 310 311 313 313 311 311 311 310 310 311 311 311 310 309 309 308 307 307 306 306 305 305 305 304 304 304 305 305 306 306 306 306 306 306 307 307 307 307 308 308 308 308 308 308 308 308 308 309 309 308 308 307 307 307 307 307 307 307 306 306 305 305 305 304 304 304 303 303 303
310 309 308 309 309 308 309 309 308 309 312 313 311 312 313 311 309 309 310 309 308 307 308 307 308 308 308 309 310 309 309 308 308 307 306 305 305 305 305 305 305 304 305 305 305 305 306 306 306 306 307 307 307 307 307 307 307 308 308 308 308 307 307 307 307 307 307 306 306 306 306 306 306 306 306 305 305 305 304 304 304 303 303 303 303 302
309 308 306 307 308 307 307 309 309 309 311 312 310 312 313 310 308 308 308 307 306 306 306 306 307 307 307 308 308 307 307 307 306 306 305 304 304 305 305 305 305 305 305 305 305 306 306 306 306 307 307 307 307 307 307 307 307 307 307 307 307 307 306 306 306 306 306 306 306 306 305 305 305 305 304 304 304 304 304 304 303 303 302 302 301 301
310 311 310 309 309 308 308 310 310 310 311 311 310 311 310 308 306 306 306 306 306 306 306 305 306 306 306 306 306 305 305 305 305 304 304 304 304 305 305 305 305 305 306 306 306 306 306 306 306 307 307 307 307 307 307 307 307 307 307 307 306 306 305 305 305 305 305 305 306 305 305 304 304 304 304 304 304 303 303 303 302 302 301 301 301 302
310 311 310 309 309 309 309 310 310 310 310 310 309 308 308 306 306 306 305 305 305 305 305 305 304 304 304 304 304 304 304 304 304 304 304 304 304 305 305 306 306 306 306 306 306 306 306 306 306 307 307 307 307 307 307 306 306 306 306 305 305 305 305 304 304 305 304 305 305 304 304 304 304 304 303 303 303 302 302 302 301 301 301 301 302 301
309 309 308 308 309 308 308 309 309 309 309 309 307 306 306 306 305 305 304 304 304 304 304 304 303 304 304 303 303 303 303 304 304 304 304 304 304 305 306 306 306 306 306 306 306 306 306 306 307 307 307 307 307 307 306 306 306 305 305 305 305 304 303 303 303 303 304 304 304 304 304 303 303 303 302 302 302 301 301 301 301 301 301 301 301 300
309 307 307 308 308 308 308 309 309 309 309 308 306 306 306 305 305 304 303 303 303 303 303 303 303 303 302 303 303 303 303 304 304 304 304 304 304 306 306 306 306 306 306 306 306 306 306 307 307 307 307 307 307 306 306 306 305 304 304 304 303 302 301 302 302 303 303 303 303 303 302 302 302 302 302 301 301 301 301 301 301 301 301 300 299 299
308 306 306 307 308 308 307 307 308 308 307 307 306 305 305 305 304 303 303 302 302 302 302 303 303 303 303 303 303 303 303 303 304 304 304 304 304 306 306 306 306 306 306 306 306 306 306 307 307 308 308 308 307 306 306 305 304 304 304 304 302 301 302 302 303 303 302 302 302 302 301 301 301 301 301 301 301 301 301 300 300 299 299 298 298 297
306 306 306 307 306 306 307 307 307 306 306 307 306 305 304 303 303 303 303 302 302 302 302 303 303 303 304 304 304 304 303 303 304 304 304 305 305 306 306 306 306 306 306 306 306 306 307 308 308 309 309 308 306 305 305 304 304 304 304 303 302 302 302 303 302 302 301 301 301 301 301 300 300 300 300 300 300 300 300 299 298 298 297 297 296 295
306 306 307 306 305 305 306 307 307 306 305 305 305 304 303 302 302 302 302 302 303 302 302 302 303 303 304 304 304 304 303 304 304 305 305 305 305 306 306 306 306 306 306 306 306 307 307 308 309 309 309 307 305 305 304 304 304 304 303 303 302 302 302 302 301 301 301 301 301 300 299 299 299 299 299 299 299 298 298 298 297 297 297 296 295 295
Wind_Speed
6 6 8 8 7 7 6 4 4 3 2 4 4 5 6 5 4 2 1 2 2 6 3 1 4 3 3 2 6 6 3 4 4 4 4 5 4 4 5 5 5 5 5 6 8 11 14 15 15 15 15 15 16 16 18 19 19 20 19 19 20 19 18 17 16 16 16 15 14 13 13 13 12 13 13 14 15 15 15 16 16 16 16 16 16 17
5 7 9 8 5 3 3 3 3 3 4 5 6 6 6 7 3 3 2 3 1 5 2 1 4 4 1 5 10 10 8 7 7 6 4 5 3 2 2 2 3 4 4 5 6 8 11 13 14 15 14 15 17 17 19 19 20 20 20 20 20 19 19 19 17 16 16 16 14 14 14 14 14 15 15 14 15 17 16 16 17 17 17 17 17 18
7 9 9 6 3 3 4 4 4 5 5 5 6 6 5 5 4 4 4 4 2 4 1 1 5 3 4 10 13 11 10 9 9 7 5 5 3 1 1 2 4 6 7 8 9 11 13 15 16 16 15 16 17 18 19 20 20 20 20 21 20 20 20 19 18 17 17 16 16 16 16 18 18 17 16 15 14 15 16 18 18 19 20 19 18 18
6 5 5 5 5 6 6 5 6 5 5 6 5 6 5 5 4 4 5 4 2 3 2 2 5 3 5 10 12 12 12 11 11 11 9 7 5 3 1 0 3 5 6 8 9 11 13 16 18 18 17 17 17 18 19 20 20 21 21 21 20 20 20 20 19 19 19 20 22 22 21 22 21 18 16 16 16 16 17 19 21 21 22 22 21 20
5 3 3 5 6 7 7 7 7 6 5 7 6 7 5 4 4 2 4 4 5 4 3 5 6 4 3 8 9 10 11 12 12 13 12 11 8 6 4 3 1 2 3 5 6 7 10 12 15 17 18 17 18 19 20 21 21 21 21 20 20 19 19 20 20 21 24 26 25 23 21 19 17 13 13 15 17 18 19 20 22 23 24 24 24 24
5 4 4 4 5 7 7 6 7 6 5 6 7 7 5 3 3 3 4 5 6 6 4 3 6 4 5 8 8 7 10 13 13 13 14 13 12 10 9 8 5 3 0 2 4 4 7 9 11 13 14 16 17 18 18 19 19 20 18 18 19 18 19 20 20 23 27 29 27 23 20 18 15 13 14 16 18 20 20 22 28 28 28 28 26 26
3 4 4 6 6 7 7 6 6 6 7 4 5 4 3 3 4 5 5 6 7 2 4 2 6 3 5 7 8 8 11 13 13 15 15 13 13 12 11 11 9 8 6 3 1 2 3 5 8 10 12 14 15 14 15 15 17 18 17 17 18 17 17 17 20 25 29 29 26 22 19 18 15 13 14 16 20 22 21 24 30 29 27 27 24 24
5 6 6 7 7 8 7 6 6 7 8 2 5 1 2 4 5 6 6 7 5 1 3 5 5 5 3 5 7 7 10 14 14 15 15 14 14 14 13 13 13 12 11 8 7 5 4 3 5 7 9 11 11 12 13 14 16 17 17 17 17 17 16 14 17 25 29 26 19 16 15 12 11 13 18 22 24 23 21 23 26 24 20 18 18 20
6 8 8 9 8 8 6 2 3 7 8 2 5 1 2 2 4 6 7 7 3 2 5 7 5 6 4 5 6 6 9 12 13 13 14 14 14 15 14 14 14 13 13 12 11 10 8 5 4 5 6 8 9 10 11 13 14 15 16 17 18 18 17 15 15 20 26 23 17 18 20 17 19 24 30 32 25 19 18 18 19 18 13 12 14 16
4 2 2 5 6 4 1 1 2 8 6 3 3 1 2 2 4 5 7 6 3 4 8 6 6 6 3 5 4 5 7 9 9 10 11 12 13 14 14 14 14 13 12 13 13 12 11 9 6 5 5 5 6 7 9 11 12 13 14 16 17 18 17 17 15 17 21 20 19 25 30 30 32 35 36 30 20 16 17 16 15 12 9 15 18 18
4 2 1 3 5 4 3 1 2 6 3 2 2 4 4 5 5 5 5 5 5 6 9 7 6 6 4 3 4 4 5 5 6 7 9 11 13 13 13 13 13 12 12 12 12 12 12 11 10 9 6 5 5 6 7 8 10 11 12 13 15 16 16 16 14 17 19 18 22 29 34 36 36 35 34 27 20 18 17 14 13 13 19 28 27 26
7 6 3 3 2 3 5 4 3 4 4 4 6 6 6 5 4 5 5 5 7 7 7 5 7 7 6 3 6 7 7 6 6 7 9 11 12 12 12 12 13 12 12 12 12 11 11 11 13 13 10 8 6 5 5 6 8 9 10 11 13 14 15 15 13 15 17 18 24 28 28 30 31 29 26 23 21 19 16 14 15 19 26 28 24 28
8 6 4 5 3 3 6 6 5 6 6 6 7 6 7 6 5 7 7 6 7 6 2 5 7 6 2 6 8 8 9 7 7 7 8 10 11 11 12 12 12 12 13 13 12 12 11 10 12 13 11 10 8 6 5 5 6 8 9 10 12 13 14 14 13 13 16 21 25 25 22 24 25 24 22 20 20 18 16 17 17 19 20 19 20 28
5 4 6 8 6 2 5 6 4 5 7 7 7 7 8 7 7 8 8 7 7 5 5 6 6 5 4 7 8 9 9 7 7 7 8 9 10 11 12 12 12 13 14 13 13 13 12 11 12 12 12 12 10 9 7 5 5 7 9 9 12 13 13 14 14 14 16 20 22 21 20 18 16 15 15 16 17 16 16 18 19 18 17 17 21 27
6 5 6 6 3 2 4 4 4 2 5 5 4 6 7 7 8 8 7 7 7 4 5 6 5 5 5 8 9 9 8 7 7 7 8 9 10 10 11 12 13 14 13 13 14 14 14 14 14 13 12 12 12 11 10 7 6 7 9 10 12 13 13 14 15 15 15 16 18 16 12 9 10 12 14 16 17 17 16 18 19 19 18 19 20 23
8 4 5 4 2 0 1 2 4 5 5 3 2 6 6 5 6 4 3 4 4 4 4 5 3 2 5 10 10 7 7 8 7 8 9 10 10 10 11 13 13 13 13 13 14 14 15 17 17 15 13 13 12 12 11 10 10 9 10 11 12 13 14 14 14 15 16 16 15 9 7 12 17 18 19 18 18 18 16 16 19 19 19 19 20 22
7 4 8 5 3 3 2 2 1 4 4 2 4 5 0 3 4 4 1 2 1 6 5 5 4 6 7 8 8 7 7 9 8 9 10 10 11 11 11 12 12 12 13 13 13 13 15 17 18 17 16 15 14 13 12 12 11 11 12 13 14 15 15 15 14 14 12 10 5 3 3 12 14 15 18 17 18 20 17 16 18 19 20 19 21 22
5 4 8 6 4 5 2 2 2 2 4 4 5 3 4 2 3 4 4 2 4 7 5 6 6 7 7 6 8 9 7 8 8 9 10 10 11 11 11 11 12 13 13 13 14 14 15 18 19 18 17 17 16 14 13 13 12 12 12 14 15 16 16 16 14 13 11 8 5 2 5 9 9 11 15 15 18 19 17 17 17 18 20 19 18 18
4 5 6 5 3 5 3 4 3 3 2 3 1 4 3 4 5 4 4 4 6 8 6 7 9 8 7 6 11 11 8 8 7 8 9 10 11 10 11 11 13 13 12 13 13 13 14 17 19 19 19 19 18 16 15 14 14 13 13 14 14 15 16 16 14 13 11 10 9 8 7 6 6 8 11 12 14 14 15 18 17 16 18 15 14 15
4 6 5 6 4 4 5 7 6 5 3 1 2 4 2 4 4 4 5 5 6 8 7 8 8 5 2 7 13 11 8 8 7 7 8 10 10 9 9 10 11 12 11 11 11 11 13 16 19 20 19 19 19 18 17 16 16 15 14 14 14 14 14 14 14 13 12 12 12 11 8 4 5 8 10 11 12 14 16 18 17 16 15 14 15 17
4 4 4 7 6 5 5 3 3 2 2 3 5 5 4 3 2 3 5 5 6 8 7 8 8 2 4 7 10 11 9 7 6 7 8 9 9 9 9 9 9 10 9 10 10 10 12 15 17 18 18 19 19 19 18 17 17 17 15 15 14 14 14 13 13 13 13 14 15 15 12 8 7 8 9 10 12 14 16 17 17 15 12 14 16 16
3 4 6 6 7 6 1 5 4 4 3 3 4 4 4 4 4 6 7 5 5 8 6 7 8 1 6 5 7 10 8 7 7 7 8 9 9 9 9 9 9 9 9 10 10 10 11 14 16 17 18 18 19 20 19 18 18 18 17 16 15 14 14 13 13 12 12 13 14 14 14 13 10 9 8 9 11 13 14 15 16 14 12 13 15 15
1 3 6 5 3 2 6 6 3 3 2 1 2 2 3 4 5 7 8 4 5 6 4 6 7 1 5 4 7 9 7 8 7 7 8 8 8 9 9 9 9 9 9 10 10 10 12 14 15 16 17 17 18 19 19 18 18 18 18 17 15 15 15 13 12 11 11 12 13 13 13 13 13 12 13 13 13 13 12 11 12 11 11 11 11 12
2 3 5 4 4 4 5 4 2 1 2 3 1 1 1 2 2 3 4 2 4 6 4 6 7 3 5 4 6 7 7 8 7 7 8 7 7 8 9 9 9 9 10 10 10 10 12 14 15 16 17 17 17 17 17 18 17 17 18 17 16 15 15 14 12 11 11 12 13 12 12 12 13 14 15 15 14 12 10 9 8 7 7 7 7 9
3 4 6 5 4 5 5 5 5 4 4 3 3 3 1 1 1 1 1 1 5 7 7 8 7 2 7 6 5 6 7 8 7 7 8 7 7 7 7 8 8 8 9 10 10 11 12 14 16 17 17 17 17 16 16 16 16 16 17 16 16 16 15 14 13 12 11 12 13 12 12 12 11 12 13 13 13 12 11 9 8 6 5 6 6 7
3 3 6 8 7 7 6 4 3 4 5 3 4 5 3 2 2 2 3 4 5 6 6 8 7 3 10 9 7 7 6 7 8 7 7 8 7 6 6 6 6 7 9 10 11 11 11 13 15 16 16 16 17 17 16 16 16 16 15 15 14 14 15 14 12 12 11 11 11 12 12 12 11 11 11 10 11 11 10 8 7 6 5 5 6 7
2 3 4 6 6 4 1 3 4 2 4 6 5 7 4 2 2 2 3 4 4 5 6 8 7 4 11 14 11 8 6 6 7 7 7 7 6 6 6 6 6 7 8 9 10 10 11 11 13 15 16 16 17 17 17 16 16 15 15 14 13 13 13 12 11 11 10 10 10 11 12 12 12 11 10 9 8 8 7 6 5 4 4 4 5 7
3 5 4 4 4 2 5 6 5 2 2 4 5 7 6 3 3 4 6 5 3 6 8 4 4 7 7 11 11 7 5 5 6 7 7 6 6 6 6 6 7 7 7 8 9 10 11 11 12 14 15 15 16 17 17 16 16 15 14 13 13 12 11 11 10 10 10 9 9 10 10 10 10 9 8 7 6 6 5 5 4 3 3 2 2 4
4 5 4 4 4 2 4 5 4 1 3 3 5 7 6 5 6 7 10 10 6 8 9 3 2 7 4 6 7 4 3 4 6 7 6 6 6 5 5 5 6 7 8 9 9 10 10 10 11 13 14 14 15 16 16 16 15 15 14 14 13 13 12 11 11 11 11 11 10 10 9 8 7 7 6 6 5 4 4 3 3 3 3 2 1 1
3 3 5 5 6 4 3 2 2 3 5 6 8 9 8 8 10 11 12 12 11 12 13 10 9 10 5 3 4 3 4 5 6 6 5 5 5 4 4 5 5 6 7 8 9 9 9 10 11 13 14 15 16 16 16 16 15 16 16 15 14 13 13 13 12 12 12 13 13 12 11 9 7 6 5 5 4 4 3 3 3 3 3 3 3 3
2 2 5 4 5 6 5 3 3 5 7 9 10 10 10 11 13 13 12 11 11 13 13 13 13 11 4 2 3 5 5 6 7 6 5 5 4 3 3 4 5 5 6 7 8 9 9 10 12 13 14 15 16 17 17 17 16 17 17 16 15 15 14 14 14 14 14 16 16 15 13 11 9 7 6 5 5 5 5 5 5 5 5 5 6 6
2 3 5 4 5 5 6 4 5 5 6 10 11 11 13 13 12 11 10 10 11 12 10 10 10 6 4 6 6 7 7 7 8 7 6 5 4 3 2 3 4 5 6 8 8 9 10 10 12 13 14 15 16 16 17 17 18 18 17 17 17 16 15 15 15 16 17 17 17 15 14 12 11 10 10 10 9 9 9 8 8 8 8 7 7 7
5 5 5 6 5 4 6 4 3 3 7 9 9 11 15 15 13 11 10 9 10 10 8 7 4 2 7 7 7 8 8 7 7 7 6 5 4 3 2 3 4 5 7 8 9 9 10 11 12 13 14 15 15 16 16 18 18 18 18 18 17 16 16 16 16 17 17 17 17 16 15 14 13 13 13 13 13 12 11 9 9 8 8 8 7 7
6 6 5 5 5 3 6 5 3 6 9 4 1 2 7 10 12 13 12 10 9 8 4 1 2 5 6 5 6 7 7 6 5 5 4 3 3 1 2 4 5 6 7 8 9 9 11 12 13 14 14 14 15 16 16 17 17 17 18 18 17 16 16 17 17 17 17 18 18 18 17 16 15 14 13 12 12 11 9 8 7 7 7 7 7 7
7 6 4 4 4 3 5 5 5 7 5 2 5 3 1 3 6 9 10 9 8 8 6 3 3 5 5 4 5 6 5 4 3 4 4 4 3 1 2 3 5 6 7 8 9 10 12 13 14 14 14 14 15 15 16 17 17 18 18 18 18 18 18 18 18 17 18 18 19 19 18 17 15 13 11 10 8 8 8 7 7 7 7 7 8 8
7 6 4 4 4 3 4 6 6 3 1 4 4 3 1 0 3 5 7 7 7 7 7 6 5 5 6 5 5 5 5 4 3 5 6 6 4 2 3 4 5 6 7 8 10 11 13 14 15 15 14 15 15 16 17 18 18 18 19 18 18 18 18 19 19 19 19 19 19 19 18 17 15 14 12 11 9 8 8 8 8 8 9 9 9 10
6 6 5 5 6 5 5 8 6 4 4 5 6 4 3 2 3 3 5 5 7 6 5 6 6 7 7 6 6 5 4 4 5 6 8 8 5 3 4 4 5 8 9 10 12 13 15 16 16 15 16 16 17 17 17 18 18 19 19 18 18 18 19 20 20 20 21 20 20 19 18 17 16 15 14 13 13 12 11 11 12 13 13 13 13 14
7 6 6 6 6 6 7 8 7 8 8 5 6 6 4 2 2 1 4 4 8 8 6 6 8 8 7 7 6 5 4 5 6 5 9 8 2 2 4 6 8 10 11 13 15 16 17 17 17 17 18 18 17 17 17 18 19 20 20 19 19 19 20 20 21 21 21 21 21 20 19 18 17 16 15 15 15 15 13 14 15 16 15 16 17 18
8 6 6 6 6 6 7 7 7 7 4 5 8 8 5 2 2 2 5 5 8 11 8 8 8 8 6 6 5 4 4 6 6 2 7 3 3 5 6 9 11 13 14 15 16 17 18 18 19 19 19 18 18 18 18 20 20 20 20 20 20 20 20 21 22 22 23 22 21 19 18 17 17 16 15 15 15 14 14 15 16 16 16 17 18 20
8 6 6 8 8 8 8 7 7 5 1 8 9 8 6 4 4 5 7 3 7 9 7 7 7 6 4 4 4 4 5 6 4 3 4 4 8 9 10 12 13 15 17 17 17 17 18 19 19 19 19 19 19 20 20 20 20 20 21 21 21 22 22 23 24 24 23 21 19 18 18 17 16 15 14 14 14 14 14 15 16 17 18 19 20 21
8 7 7 8 8 8 9 8 7 3 4 9 9 8 7 6 5 7 5 2 8 7 5 5 5 3 3 3 3 4 4 3 4 5 6 8 10 11 13 15 16 17 17 17 17 17 18 19 19 19 20 20 20 20 20 20 20 21 21 21 22 23 24 24 24 23 21 19 17 17 17 16 15 14 14 15 14 14 14 15 16 17 18 20 21 22
8 7 7 8 8 8 7 7 8 4 5 10 9 8 8 6 4 3 1 5 7 6 6 4 3 1 2 4 4 5 5 5 6 8 8 9 10 12 14 16 16 17 17 17 17 17 18 19 19 20 21 20 20 21 20 20 20 21 21 22 23 23 23 22 21 20 19 17 15 14 13 13 14 14 14 15 14 14 14 15 17 18 19 20 22 23
7 7 7 7 7 6 6 7 8 5 7 13 11 8 8 6 1 3 5 5 5 4 4 3 2 1 2 4 5 7 8 8 9 10 10 11 12 13 14 16 16 17 18 18 18 17 18 19 20 20 20 20 20 20 19 19 21 21 21 22 23 22 20 19 18 18 17 17 16 14 13 14 14 14 14 14 13 13 14 15 17 19 20 20 22 23
8 8 7 6 7 7 7 7 3 2 9 14 9 5 5 4 4 5 4 4 4 3 2 2 1 1 3 5 6 8 9 10 11 11 12 12 12 12 14 15 16 18 18 18 19 19 18 18 19 19 20 20 20 19 18 19 21 21 22 22 21 20 19 18 17 16 15 15 15 14 14 15 15 14 14 13 13 14 15 16 18 19 20 21 22 22
4 2 2 2 5 3 2 1 5 7 10 10 4 3 6 7 6 4 3 2 2 2 1 1 1 2 4 6 8 9 10 10 11 12 12 12 12 12 13 15 17 17 17 18 19 18 18 19 18 19 20 20 19 18 18 19 20 21 20 19 18 18 18 18 16 15 15 14 13 13 14 14 14 13 12 11 12 14 15 17 18 19 19 20 20 19
2 3 1 2 3 3 2 4 7 7 9 8 5 5 6 6 4 3 2 0 1 1 1 2 3 4 5 7 8 9 10 11 12 12 12 12 12 13 14 16 16 17 17 19 19 18 18 19 18 19 19 18 17 18 18 18 18 17 17 16 16 16 16 15 15 14 13 12 11 11 10 10 10 11 10 10 12 14 15 17 18 18 17 17 17 16
3 2 3 4 4 4 4 6 8 8 8 8 6 5 5 3 2 1 1 2 1 2 2 3 5 6 7 8 9 11 12 12 12 12 12 11 12 13 14 15 16 17 18 18 18 18 18 17 17 18 18 17 18 18 16 15 14 13 13 14 14 13 12 11 11 10 8 8 8 8 8 9 10 11 12 13 14 15 16 16 16 16 15 15 15 14
5 6 5 6 6 4 2 5 8 7 7 6 5 4 4 3 2 1 2 2 2 4 5 6 7 8 8 9 10 11 12 12 12 12 11 11 11 12 13 15 16 17 18 18 18 18 17 16 17 17 17 17 17 15 12 11 11 11 12 12 11 9 9 8 7 8 8 9 10 11 12 14 14 14 15 16 15 16 16 14 13 14 13 12 12 12
6 7 6 6 7 5 3 5 7 7 6 7 7 5 3 2 2 2 3 4 5 6 7 8 9 9 9 10 10 10 12 12 11 12 12 11 11 12 14 16 17 18 18 18 17 16 15 15 15 15 15 15 13 10 8 8 9 10 11 10 7 6 7 7 8 10 11 13 14 15 16 16 16 16 17 16 15 14 13 11 10 11 12 11 10 10
5 6 5 5 7 6 5 6 8 7 6 6 7 6 3 2 3 4 5 6 7 8 8 9 10 10 11 11 10 10 11 11 11 12 12 11 12 14 15 17 18 18 18 17 16 15 15 14 13 12 11 11 10 8 8 9 11 11 9 6 4 5 7 9 11 13 14 15 15 15 15 15 15 14 13 12 12 11 10 10 10 11 11 10 10 11
6 7 5 5 6 4 2 4 5 5 5 2 3 3 3 4 5 6 7 7 8 8 9 10 10 10 10 10 11 11 11 11 13 13 12 12 14 16 17 17 17 17 17 16 15 15 13 11 10 10 10 9 9 9 10 12 12 9 5 3 4 6 8 10 13 14 14 14 13 12 12 12 12 11 10 9 9 9 9 10 10 11 9 8 9 13
Wind_Direction
203 207 204 221 215 200 197 220 285 328 295 268 257 246 253 250 221 153 105 82 300 261 224 266 288 292 289 355 39 34 14 340 336 318 285 270 246 234 232 225 216 207 192 170 173 185 188 188 188 191 193 194 198 200 200 201 204 205 202 200 202 199 195 196 197 199 201 204 207 208 212 215 218 223 227 229 227 224 224 223 220 218 217 216 216 215
202 225 220 222 212 173 181 210 248 254 242 247 249 245 241 236 200 109 101 97 262 259 186 97 288 267 271 40 44 33 31 29 16 11 352 336 318 259 229 207 200 184 166 154 160 179 189 192 192 193 196 198 199 201 202 204 205 205 205 205 204 198 197 198 195 194 197 202 206 208 211 213 216 219 221 225 226 224 225 226 224 223 222 221 220 218
207 229 224 202 168 162 195 218 224 237 246 239 238 245 241 220 172 117 119 129 194 262 192 117 280 260 95 63 52 44 44 43 35 32 24 8 353 302 203 168 181 180 180 180 181 188 192 194 195 197 201 203 205 206 205 207 207 207 208 210 206 200 198 198 195 195 196 199 204 208 211 211 212 215 218 223 227 227 228 229 228 225 224 224 223 223
208 221 212 175 172 196 195 202 223 236 236 232 233 237 228 199 193 167 146 157 205 272 296 288 271 247 113 85 68 59 56 55 55 54 49 40 28 360 349 212 212 209 205 200 196 194 193 193 193 197 202 202 205 208 209 209 209 209 211 210 206 203 200 197 196 197 199 199 202 207 211 212 211 210 215 221 224 227 230 231 229 227 225 224 222 222
230 94 106 158 176 205 205 197 217 235 219 212 223 241 243 209 217 196 144 180 210 212 241 260 247 223 111 84 73 68 66 60 57 59 57 53 49 48 45 38 311 263 248 234 222 206 198 198 198 199 202 201 204 208 209 209 208 210 212 210 207 203 201 199 194 195 202 204 205 207 210 216 216 213 219 226 227 228 230 230 229 228 226 225 224 223
243 119 135 190 180 206 224 210 214 236 232 207 203 226 260 253 215 194 172 205 225 196 169 262 257 197 108 77 70 71 70 63 55 54 54 52 52 54 55 53 49 42 48 253 264 239 213 209 209 206 205 207 209 211 211 211 211 213 213 211 209 205 205 199 189 196 207 209 208 204 202 208 210 213 222 228 232 231 229 232 233 232 229 228 228 227
232 154 196 231 215 213 231 235 218 231 249 220 162 179 238 243 205 194 196 223 247 214 131 249 275 217 128 82 74 78 73 66 57 51 50 50 51 51 52 53 53 53 60 73 14 309 257 230 222 215 212 217 220 219 219 220 221 223 221 216 212 209 209 198 190 202 212 211 207 201 203 213 218 222 227 231 236 235 233 235 236 236 234 232 233 233
202 191 202 220 225 222 227 229 198 215 246 217 93 106 231 217 204 195 207 232 252 255 162 208 258 257 196 94 83 90 78 63 54 48 47 48 50 52 52 52 53 52 52 56 53 34 359 303 262 241 227 227 229 227 226 230 232 233 232 228 222 219 218 207 197 209 218 212 199 198 210 227 238 241 239 235 234 235 235 236 236 237 238 238 239 239
178 199 194 200 217 218 218 221 171 216 241 76 69 323 274 236 217 203 218 236 237 251 235 202 201 254 223 118 97 92 78 60 53 48 45 46 47 49 50 51 53 54 53 53 51 44 31 7 326 286 257 242 235 230 228 231 237 238 237 234 231 230 228 220 207 212 222 215 199 205 213 218 226 233 236 234 231 232 234 235 237 237 238 243 244 239
123 176 179 202 221 226 248 360 227 234 241 70 77 195 178 203 210 211 233 238 207 235 257 216 188 246 236 130 116 92 73 54 54 50 46 47 46 45 45 46 49 51 53 54 53 47 38 26 7 338 302 273 251 242 238 239 242 240 237 236 235 235 234 231 220 215 220 212 200 209 216 218 221 227 232 231 227 228 229 231 233 230 233 242 239 229
122 102 25 245 257 297 317 317 245 248 238 109 206 207 187 191 195 214 238 250 229 231 252 231 192 238 250 118 90 82 70 46 54 55 45 45 45 42 42 42 43 44 47 49 51 49 42 35 27 19 4 337 300 270 254 251 251 246 244 244 242 241 239 237 228 220 218 208 204 215 221 222 221 224 229 229 226 226 227 230 226 218 228 235 231 225
202 201 193 194 239 281 252 217 192 218 210 210 230 225 212 204 205 223 218 224 241 244 247 204 169 223 247 109 91 93 83 60 55 54 44 40 39 40 42 43 41 40 41 40 41 42 38 36 35 32 25 13 352 316 283 267 261 254 253 252 249 249 244 240 231 220 217 212 213 219 221 221 221 223 227 229 231 230 229 227 223 224 232 234 228 227
207 205 156 147 165 244 240 210 171 179 197 213 223 223 227 227 223 234 229 219 238 248 184 149 177 217 224 96 106 102 88 72 59 51 43 39 39 42 47 47 44 42 41 39 36 34 32 28 30 29 24 20 12 352 324 286 267 259 258 257 255 255 252 247 238 224 219 219 219 218 217 218 221 225 229 233 237 238 238 236 234 234 236 237 233 232
183 167 169 176 168 198 244 233 199 180 189 208 219 226 235 237 231 235 236 229 242 237 142 140 194 202 129 113 115 102 89 79 69 60 52 50 48 49 51 49 46 44 42 41 37 34 31 25 23 24 22 19 13 3 349 315 285 273 269 267 265 265 264 259 253 242 231 225 224 225 226 224 223 232 242 248 250 248 248 249 246 241 236 236 237 235
204 180 173 176 148 175 238 292 322 271 208 215 236 247 244 242 242 247 249 246 253 243 147 152 201 204 158 135 118 107 98 85 79 76 68 62 57 52 49 45 42 40 38 37 36 33 30 25 22 21 19 17 12 5 358 343 321 299 287 282 280 280 279 274 268 261 251 243 241 240 242 252 256 260 263 263 262 254 250 253 251 248 244 240 238 235
230 205 116 94 49 57 225 357 333 286 239 200 229 247 248 254 249 249 286 293 282 264 204 183 183 75 110 122 116 117 108 98 91 82 72 61 53 47 43 38 34 34 34 33 33 30 28 25 23 21 18 16 12 5 358 351 340 323 309 300 295 295 296 295 288 278 275 270 260 241 238 257 256 255 254 254 259 259 256 257 254 252 249 244 241 235
236 192 120 122 108 78 15 5 331 286 261 190 223 234 214 357 272 235 238 51 276 258 228 191 157 104 121 136 132 135 116 106 100 81 68 55 50 46 40 35 30 32 32 33 33 30 28 27 26 23 21 19 15 8 1 354 349 339 328 319 311 311 313 314 313 310 304 290 271 137 208 257 257 259 261 257 256 259 260 258 253 250 250 248 246 239
243 191 144 162 149 106 15 311 99 352 296 248 232 186 107 50 255 243 250 200 225 250 227 213 213 170 168 167 149 152 131 108 100 81 67 52 46 44 41 36 32 32 32 33 34 31 29 30 29 27 26 26 23 17 11 4 360 353 343 336 329 329 330 329 333 339 340 332 320 308 263 269 274 272 270 261 254 255 258 257 253 252 253 254 251 242
240 216 158 165 164 129 168 233 169 113 4 320 218 145 162 241 222 218 248 235 235 250 245 241 238 215 207 177 155 160 141 116 104 82 68 54 47 43 39 36 33 32 31 31 33 31 28 28 30 29 29 31 30 26 22 17 14 8 359 353 346 343 341 341 354 1 351 339 326 309 282 258 251 256 260 258 257 258 258 258 257 258 256 250 243 234
219 233 190 172 176 154 182 223 217 169 132 90 159 171 217 269 252 231 243 252 254 257 260 258 246 234 212 148 148 145 124 114 100 82 71 59 56 51 44 42 38 35 32 30 33 34 32 30 31 31 31 34 34 31 30 28 25 20 13 7 359 355 350 348 357 359 343 333 331 327 320 285 251 252 251 249 253 256 257 257 256 254 247 234 233 235
194 231 217 168 164 193 199 215 263 246 188 199 212 213 207 217 248 248 238 242 257 261 261 263 256 227 91 111 133 126 111 104 90 84 79 67 65 61 54 51 47 43 39 34 33 34 33 33 32 33 33 34 35 34 34 33 30 26 22 17 11 5 2 356 353 347 336 332 329 329 328 319 294 273 261 255 255 259 261 262 262 255 238 231 236 235
197 213 219 190 184 206 150 52 13 344 341 276 247 235 222 221 228 242 241 226 239 259 261 265 267 193 109 113 118 115 107 97 88 86 86 77 72 70 64 60 56 52 47 41 37 34 33 34 33 34 34 35 35 34 33 33 32 29 24 21 18 14 10 4 358 350 341 335 332 331 330 327 322 307 293 285 280 278 275 272 272 264 244 241 246 238
300 222 212 201 180 133 77 65 37 8 5 327 315 272 239 242 245 252 257 240 225 248 267 269 268 141 114 122 117 114 100 90 86 86 92 87 76 73 69 66 63 57 52 47 42 38 36 34 33 33 34 34 35 34 31 31 31 30 26 22 21 18 13 8 4 358 349 340 336 336 334 332 329 322 314 308 304 298 289 280 276 268 257 254 253 244
247 221 197 170 118 103 100 108 108 62 237 207 113 29 242 233 277 290 298 302 254 245 243 253 250 165 126 118 114 120 109 98 91 85 93 93 82 76 69 67 64 57 54 50 44 41 38 36 34 32 30 30 30 30 29 28 27 28 26 23 21 18 15 10 5 1 355 347 341 338 338 336 332 326 321 317 315 312 304 295 282 270 265 265 256 245
207 207 203 195 171 160 165 179 179 185 219 209 128 107 112 124 114 321 289 265 260 250 237 251 264 173 140 144 130 133 124 107 99 92 91 90 85 81 72 67 63 57 52 48 44 40 35 33 32 28 26 25 24 24 24 23 22 23 22 21 19 16 13 10 5 1 357 351 346 343 342 340 334 328 324 319 318 316 312 306 296 283 278 279 271 254
204 202 212 219 219 214 207 205 200 183 178 172 150 147 136 130 167 242 255 223 237 241 228 249 273 120 139 163 157 139 134 115 109 108 99 93 89 84 75 65 58 53 46 43 40 36 33 30 28 25 22 20 19 17 16 16 16 15 16 17 16 14 11 8 5 3 1 358 354 351 349 345 339 333 326 319 316 313 308 304 297 289 282 280 275 263
188 192 224 246 260 261 158 84 52 72 159 165 173 177 171 170 198 250 262 244 254 258 243 249 257 179 161 176 173 146 134 126 121 119 108 98 89 80 76 67 59 54 46 42 38 32 30 27 23 21 17 14 13 10 8 8 7 7 7 8 8 9 8 5 3 3 3 3 359 356 354 349 344 338 332 325 319 315 312 308 301 297 286 264 252 251
189 187 207 250 281 10 71 89 79 62 193 181 183 194 196 199 209 228 242 250 283 272 263 261 245 240 205 175 168 145 124 127 126 123 112 101 93 83 76 70 64 57 47 42 35 27 24 18 16 14 9 6 4 1 358 357 357 357 355 356 357 359 0 359 357 356 355 355 355 354 350 345 341 337 333 333 329 327 331 330 330 332 322 289 228 221
222 186 178 208 216 122 91 107 112 146 229 228 227 228 223 214 216 227 241 250 256 253 264 300 240 253 248 150 152 132 111 123 116 114 111 102 96 86 77 67 57 49 42 35 28 22 16 10 6 2 359 356 352 350 348 345 346 346 343 344 346 348 351 350 346 345 344 343 342 342 338 333 334 333 332 335 337 343 351 355 360 360 351 351 340 235
261 163 156 191 196 176 161 153 160 229 246 246 244 243 241 237 235 236 244 252 254 253 260 271 264 258 253 173 155 118 108 118 116 118 119 107 95 85 76 64 49 39 34 28 22 17 9 2 357 353 349 347 344 342 338 335 335 335 333 334 335 336 339 338 334 333 333 332 331 329 325 322 323 325 328 334 336 344 350 353 359 356 347 345 340 326
284 153 151 180 201 201 198 205 233 250 260 259 256 252 248 246 243 241 244 245 247 254 258 262 266 262 239 161 134 127 129 135 139 142 137 124 112 97 80 58 43 29 19 16 10 4 358 352 349 346 342 340 338 334 330 328 326 324 324 325 324 325 326 324 321 318 318 321 321 319 316 314 313 313 317 323 323 321 323 324 324 319 315 316 314 310
205 160 154 185 228 213 188 208 239 247 264 262 256 251 244 242 241 238 237 229 228 242 249 249 261 260 152 132 136 142 148 154 158 159 154 147 134 113 84 44 32 16 5 2 355 350 348 344 341 338 333 331 329 327 326 324 320 316 316 316 315 315 315 313 310 309 311 314 314 313 312 307 303 301 302 305 306 305 306 308 308 306 307 309 307 304
168 165 167 192 232 204 157 178 228 235 256 255 242 238 238 240 241 238 235 224 218 230 244 248 257 109 116 137 154 156 164 173 172 167 160 151 136 110 57 18 6 358 353 347 340 339 337 335 333 330 326 323 321 321 322 319 315 311 309 307 305 304 304 304 304 304 306 309 309 309 307 303 297 295 297 301 301 300 301 301 302 306 309 310 310 309
169 189 190 189 226 201 147 150 207 237 249 254 120 210 241 245 244 240 238 230 214 212 227 260 95 110 127 157 169 166 173 175 168 163 155 146 140 97 23 357 343 340 336 330 327 328 327 326 324 322 319 316 315 316 314 312 311 310 306 302 299 298 297 297 298 298 299 301 302 303 303 300 298 297 300 302 299 296 297 298 300 306 307 305 304 303
176 200 197 183 226 213 144 162 226 245 245 107 88 93 345 285 258 248 249 240 217 205 205 198 163 146 145 152 152 155 157 149 159 185 184 174 162 129 333 318 321 323 319 318 319 319 318 318 318 318 317 315 315 313 311 310 312 311 307 303 299 297 296 295 294 292 292 295 298 299 299 298 298 297 298 297 291 288 291 293 295 298 299 299 299 299
189 197 195 193 211 194 166 196 224 247 114 118 128 140 125 196 215 226 244 229 200 199 206 202 183 156 146 148 144 142 144 148 188 211 199 181 166 194 287 298 308 310 310 313 314 314 315 315 316 317 317 315 314 312 311 312 312 309 306 303 299 296 294 293 292 290 290 292 293 295 295 295 295 296 294 292 287 285 289 293 297 299 300 299 299 299
211 204 199 208 206 204 223 226 226 252 237 193 175 166 168 178 168 203 248 216 173 178 200 194 172 156 156 156 147 143 157 188 226 211 181 169 169 222 272 293 300 302 309 313 312 313 313 313 313 314 314 313 311 310 310 310 310 308 305 302 298 295 295 293 291 289 289 289 289 291 290 288 292 294 293 294 292 290 292 294 296 298 297 297 298 299
217 218 211 217 213 212 240 244 235 251 251 193 144 131 122 85 82 77 277 230 165 163 185 184 167 163 164 158 154 160 178 226 254 205 160 159 185 281 292 301 302 305 312 314 314 314 313 313 314 313 312 310 308 308 309 308 307 306 302 299 297 296 295 292 290 289 289 288 288 288 285 285 290 291 288 288 290 291 291 292 293 295 294 295 297 297
206 223 222 226 220 203 222 239 234 244 246 129 123 121 123 136 142 180 259 241 163 155 169 169 160 164 169 162 165 185 211 246 262 164 130 150 308 314 306 306 309 313 316 317 317 316 314 314 311 308 308 307 307 310 310 308 306 304 301 300 299 296 294 292 291 291 291 289 286 283 282 285 289 286 280 280 283 284 286 290 292 293 293 294 296 297
193 206 207 219 221 204 210 230 239 247 152 121 127 128 132 143 163 206 245 232 136 140 154 159 156 158 162 163 182 216 237 257 284 23 45 328 313 313 311 313 316 316 316 315 315 314 311 308 305 304 305 306 306 309 308 306 305 302 301 302 301 298 297 296 295 295 294 290 281 276 279 284 284 280 276 277 280 280 282 287 290 292 294 296 296 297
187 195 203 214 218 209 210 226 243 242 129 130 135 134 138 152 190 223 240 124 124 134 132 143 154 149 164 192 218 236 251 283 315 331 327 314 310 310 310 311 310 309 309 309 310 309 306 303 303 304 304 304 306 308 307 306 305 303 303 305 304 304 304 303 300 298 295 290 284 281 283 284 281 277 274 276 277 278 281 285 288 292 295 296 296 297
178 185 201 212 218 219 218 227 244 240 138 134 135 134 152 178 208 221 130 100 122 129 116 130 159 162 207 234 248 261 277 292 295 299 303 302 303 303 304 304 304 304 304 303 303 304 304 304 304 303 303 304 306 306 306 306 305 305 306 306 307 309 310 307 303 298 293 289 288 288 288 284 280 277 275 276 277 278 282 285 288 291 294 294 296 297
179 183 201 204 207 221 221 222 242 247 147 143 141 148 185 208 165 103 119 115 115 114 117 145 171 189 254 261 262 267 277 283 286 292 295 295 296 297 298 300 300 300 300 300 302 305 306 304 302 300 302 304 304 306 307 306 306 306 306 306 308 311 310 308 305 300 296 293 290 288 286 285 283 279 276 277 278 278 281 284 288 293 295 297 297 296
189 198 217 203 190 209 225 217 220 108 142 158 160 162 181 163 84 88 121 122 118 129 146 173 177 221 272 279 277 277 280 282 285 290 290 290 292 293 294 296 295 295 298 300 302 305 305 301 298 298 299 301 304 307 308 307 307 306 304 305 308 309 309 309 308 305 303 301 297 293 291 290 289 286 284 284 284 283 283 287 292 296 298 298 298 297
192 194 268 226 182 196 266 131 104 105 137 159 155 100 118 114 94 86 89 99 132 152 154 221 256 270 277 279 278 278 279 281 283 285 286 287 290 291 291 291 291 293 295 297 299 301 301 299 298 297 298 300 304 308 310 311 310 308 307 308 310 310 311 312 311 308 307 304 300 298 297 294 291 290 288 286 286 286 288 292 296 300 301 299 298 299
65 58 319 256 162 120 75 101 115 125 142 148 128 108 115 112 101 99 88 83 227 192 187 243 278 284 278 279 279 278 278 280 281 282 284 286 287 288 288 287 289 292 294 295 298 301 302 300 298 297 297 300 305 310 312 314 312 311 313 314 313 313 314 316 318 317 315 312 311 310 306 300 298 297 292 286 286 290 294 298 302 305 304 302 303 306
146 153 220 223 183 172 181 158 144 144 152 155 154 148 147 150 131 113 272 271 272 266 253 266 281 279 275 275 274 272 274 277 279 281 283 284 284 286 287 288 292 294 294 296 298 299 299 298 297 297 299 302 308 314 316 316 314 313 315 315 314 314 317 320 323 324 324 325 324 318 309 302 300 299 295 294 296 298 300 305 309 310 309 310 314 318
166 172 200 212 202 196 173 157 158 159 154 156 172 183 189 203 215 276 282 273 275 270 266 268 271 270 270 268 266 269 274 276 278 280 281 283 284 287 289 293 296 296 296 298 298 297 296 295 295 297 300 305 311 317 319 317 313 310 311 313 314 316 320 321 318 315 317 318 314 310 308 306 303 300 299 302 304 304 308 316 316 312 311 318 325 326
124 159 186 206 204 190 144 158 180 187 178 178 192 206 211 219 237 257 258 253 255 257 258 261 260 259 262 264 265 271 274 274 275 278 280 284 286 287 291 295 297 298 299 300 299 297 295 293 293 295 299 305 312 318 316 311 305 306 310 313 313 316 320 318 315 314 316 316 315 316 316 314 310 308 306 306 307 308 318 330 323 310 309 315 316 314
155 191 188 186 203 211 208 198 202 218 226 200 185 189 204 229 247 254 252 248 252 255 258 262 261 259 261 263 264 267 270 272 276 278 280 284 285 288 292 295 297 298 301 302 301 299 295 290 288 289 292 298 306 309 305 304 305 309 313 311 311 320 322 321 320 320 319 320 321 322 321 317 315 314 313 313 316 318 324 332 323 310 307 308 307 309
209 224 207 200 220 237 229 198 204 240 272 254 165 201 254 272 267 264 261 259 262 263 263 266 268 268 267 265 264 264 268 273 277 280 282 284 285 288 291 293 296 299 302 303 301 298 293 287 284 282 283 289 300 302 301 306 313 320 323 320 327 332 327 325 324 323 322 325 327 327 326 322 322 325 327 332 340 338 330 325 321 313 310 314 319 320